Location: Piotrkow Trybunalski
(51.4000°N, 19.6830°E)
Time: 20:58:27
(UTC+02:00)

Explorer 7 - Pass Details

Date: 20 September 2024
Orbit: 460 x 606 km, 50.3° (Epoch: 12 October)

Event Time Altitude Azimuth Distance (km) Brightness Sun altitude
Exits shadow 03:14:06 19° 91° (E) 1,157 8.9 -27.8°
Drops below altitude 10° 03:15:16 10° 88° (E) 1,619 9.8 -27.6°
Sets 03:17:24 0° 86° (E) 2,486 10.9 -27.4°
